Regional Weather Roundup
Issued by NWS

Home | Current Version | Previous Version | Text Only | Print | Product List | Glossary Off
Versions: 1 2 3 4 5 6 7 8 9 10 11 12 13 14 15 16 17 18 19 20 21 22 23 24 25 26 27 28 29 30 31 32 33 34 35 36 37 38 39 40 41 42 43 44 45 46 47 48 49 50

000
ASUS43 KMPX 160901
RWRMN
WEATHER ROUNDUP FOR MINNESOTA
NATIONAL WEATHER SERVICE TWIN CITIES/CHANHASSEN MN
300 AM CST SAT DEC 16 2017


NOTE: "FAIR" INDICATES FEW OR NO CLOUDS BELOW 12,000 FEET WITH NO
SIGNIFICANT WEATHER AND/OR OBSTRUCTIONS TO VISIBILITY. N/A MEANS
CURRENT SKY AND/OR WEATHER CONDITIONS ARE NOT AVAILABLE.

MNZ060>063-068>070-161000-
   Twin Cities Metro

CITY           SKY/WX    TMP DP  RH WIND       PRES   REMARKS
TWIN CITIES    CLOUDY    30  29  96 E8        29.67R WCI  22
ST PAUL        PTCLDY    29  26  89 E6        29.69R WCI  23
CRYSTAL        MOCLDY    28  23  81 E6        29.66R WCI  22
BLAINE         PTCLDY    27  27 100 E3        29.67S
LAKEVILLE        N/A     28  28 100 E3        29.66R
EDEN PRAIRIE   CLOUDY    30  27  88 NE6       29.65R WCI  24
SOUTH ST PAUL  PTCLDY    30  28  92 E3        29.68R
LAKE ELMO      FAIR      28  27  93 NE7       29.69S WCI  21
$$
MNZ001>005-007-008-013>017-022>024-027-028-161000-
   Northwest Minnesota

CITY           SKY/WX    TMP DP  RH WIND       PRES   REMARKS
BEMIDJI        CLOUDY    15  12  89 E12       29.70R WCI   2
HALLOCK        CLOUDY    16  10  79 E15       29.72R WCI   1
ROSEAU         CLOUDY     9   3  78 E13       29.75S WCI  -7
WARROAD        CLOUDY     9   3  78 E15       29.76F WCI  -8
CROOKSTON      CLOUDY    19  16  86 E10       29.69F WCI   8
FOSSTON        CLOUDY    18  14  86 E8        29.69R WCI   7
DETROIT LAKES  CLOUDY    23  21  93 E5        29.65R WCI  17
MOORHEAD       CLOUDY    27  23  86 CALM      29.66R
PARK RAPIDS    CLOUDY    19  15  84 E9        29.66R WCI   8
MAHNOMEN       CLOUDY    22  18  85 E8        29.64R WCI  12
$$
MNZ006-009>011-018-025>026-161000-
   North Central Minnesota

CITY           SKY/WX    TMP DP  RH WIND       PRES   REMARKS
BAUDETTE       FLURRIES   6   2  83 E10       29.78R WCI  -9
FLAG ISLAND    CLOUDY     0  -6  78 E7        29.80R WCI -13
INTL FALLS     CLOUDY     2  -3  80 E9        29.83R WCI -13
WASKISH        CLOUDY     9   5  85 E12       29.75S WCI  -6
BIG FORK       CLOUDY    10   5  79 E5        29.76R WCI   2
LONGVILLE      CLOUDY    18  14  86 E3        29.72R
GRAND RAPIDS   CLOUDY    12   9  87 VRB3      29.76R
CRANE LAKE     CLOUDY    -2  -6  84 CALM      29.86R
ORR            CLOUDY     3  -2  78 CALM      29.77R
COOK           CLOUDY     3   0  85 E5        29.80R WCI  -6
WALKER         CLOUDY    16  13  89 E6        29.71R WCI   7
$$
MNZ012-019>021-037-161000-
   Northeast Minnesota

CITY           SKY/WX    TMP DP  RH WIND       PRES   REMARKS
DULUTH         LGT SNOW  16  14  92 E9        29.75R FOG     WCI   4
ELY            CLOUDY     0  -4  85 CALM      29.80R
HIBBING        CLOUDY     8   5  87 E3        29.76R
EVELETH        FLURRIES   8   3  78 NE6       29.78R WCI  -2
DULUTH HARBOR  CLOUDY    19  16  86 E9        29.83R WCI   9
TWO HARBORS    FLURRIES  19  12  73 NE5       29.78R WCI  13
SILVER BAY     FLURRIES  12   9  85 N3        29.80R
GRAND MARAIS     N/A      8   1  73 NE9G18    29.90R WCI  -5
G MARAIS ARPRT FLURRIES  -2  -8  78 N8        29.78S WCI -17
$$
MNZ029>031-032-039>041-046>048-054>057-064-161000-
   West Central Minnesota

CITY           SKY/WX    TMP DP  RH WIND       PRES   REMARKS
FERGUS FALLS   CLOUDY    27  25  93 E6        29.67R WCI  20
WHEATON        CLOUDY    25  25 100 E3        29.64R
MORRIS         CLOUDY    27  25  93 E6        29.62R WCI  20
ALEXANDRIA     CLOUDY    25  24  96 E8        29.64R FOG     WCI  16
ELBOW LAKE     FAIR      25  24  96 SE9       29.63R WCI  15
WADENA         CLOUDY    19  18  93 E7        29.65R WCI  10
GLENWOOD       CLOUDY    25  25 100 E6        29.65R FOG     WCI  18
APPLETON         N/A     28  27  93 E3        29.62R
BENSON         CLOUDY    30  27  86 E6        29.64R WCI  24
ORTONVILLE     CLOUDY    30  27  86 CALM      29.61S
MADISON        CLOUDY    34  28  80 W3        29.62R
WILLMAR        FAIR      30  28  93 E6        29.63S WCI  24
$$
MNZ033>034-036-042>043-049>051-058-059-161000-
   Central Minnesota

CITY           SKY/WX    TMP DP  RH WIND       PRES   REMARKS
ST CLOUD       CLOUDY    21  19  92 NE8       29.67R WCI  11
SAUK CENTRE    CLOUDY    23  22  96 E6        29.65R WCI  16
PAYNESVILLE    CLOUDY    26  26 100 E3        29.65R
AITKIN         CLOUDY    18  12  79 E7        29.71R WCI   8
PINE RIVER     CLOUDY    18  16  93 E6        29.75R WCI   9
BRAINERD       CLOUDY    21  16  81 E7        29.69R WCI  12
STAPLES        CLOUDY    19  18  93 E5        29.67R WCI  13
LITTLE FALLS   CLOUDY    23  18  80 E5        29.68R WCI  17
LITCHFIELD     CLOUDY    28  28 100 E5        29.64R WCI  23
BUFFALO        CLOUDY    26  24  93 NE7       29.67S WCI  18
MAPLE LAKE     CLOUDY    27  26  97 E6        29.67S FOG     WCI  20
HUTCHINSON     CLOUDY    30  28  94 E5        29.65R WCI  25
$$
MNZ037-044-045-052-053-161000-
   East Central Minnesota

CITY           SKY/WX    TMP DP  RH WIND       PRES   REMARKS
PRINCETON      CLOUDY    23  21  93 NE7       29.69R WCI  15
MORA           CLOUDY    19  18  93 E3        29.74R
CAMBRIDGE      FLURRIES  25  19  80 NE3       29.71R
RUSH CITY      CLOUDY    21  18  90 NE8       29.73R WCI  11
MOOSE LAKE     CLOUDY    18  14  86 E5        29.74R WCI  11
HINCKLEY       CLOUDY    21  18  86 NE7       29.74R WCI  13
CLOQUET        FLURRIES  14  10  85 E6        29.75R WCI   5
MCGREGOR       CLOUDY    18  14  86 E7        29.74R WCI   8
$$
MNZ071>073-080-081-089-090-097-098-161000-
   Southwest Minnesota

CITY           SKY/WX    TMP DP  RH WIND       PRES   REMARKS
MONTEVIDEO     CLOUDY    28  25  86 CALM      29.62R
GRANITE FALLS  CLOUDY    29  27  91 CALM      29.63R
CANBY          CLOUDY    38  29  71 W8        29.63R
MARSHALL       CLOUDY    35  28  75 W9        29.62R WCI  28
REDWOOD FALLS  MOCLDY    32  29  88 CALM      29.62R
OLIVIA         PTCLDY    30  28  93 E3        29.61R
PIPESTONE      CLOUDY    30  25  80 CALM      29.62R
WINDOM           N/A     34  19  55 SW8       29.62S WCI  27
WORTHINGTON    CLEAR     30  26  85 W8        29.64R WCI  22
JACKSON        CLEAR     32  27  80 SW5       29.64R WCI  27
SLAYTON        CLOUDY    33  28  79 SW13      29.62S WCI  24
$$
MNZ065>067-074>077-082>085-091>093-161000-
   South Central Minnesota

CITY           SKY/WX    TMP DP  RH WIND       PRES   REMARKS
MANKATO        CLOUDY    33  26  75 S7        29.64R WCI  27
NEW ULM        CLOUDY    28  25  86 S5        29.63R WCI  23
ST JAMES       CLOUDY    32  27  80 SW3       29.64R
FAIRMONT       CLOUDY    32  26  78 SW3       29.65R
GLENCOE        CLOUDY    30  30 100 E5        29.64R WCI  25
FARIBAULT      CLOUDY    32  27  80 CALM      29.65R
OWATONNA       CLOUDY    34  28  80 S3        29.65R
WASECA         PTCLDY    32  28  86 S3        29.66R
ALBERT LEA     CLOUDY    34  25  69 S3        29.63F
$$
MNZ078>079-086>088-094>096-161000-
   Southeast Minnesota

CITY           SKY/WX    TMP DP  RH WIND       PRES   REMARKS
ROCHESTER      CLOUDY    31  27  85 S7        29.66R WCI  24
RED WING       CLOUDY    30  25  80 E7        29.68S WCI  23
STANTON        CLOUDY    32  28  86 E3        29.64S
DODGE CENTER   CLOUDY    30  27  86 S7        29.64F WCI  23
WINONA         CLOUDY    30  30 100 S3        29.72R
AUSTIN         CLOUDY    30  25  80 CALM      29.65F
PRESTON        MOCLDY    32  25  75 S9        29.68R WCI  24
$$
ABBREVIATIONS USED IN REMARKS
   TC - TEMPERATURES IN CELSIUS
  WCI - WIND CHILL INDEX
   HX - HEAT INDEX
  VSB - VISIBILITY
$$



USA.gov is the U.S. government's official web portal to all federal, state and local government web resources and services.